User: anonymous   Login
Location: Unspecified
(0.0000°N, 0.0000°E)
Time: 12:34:29
(UTC+00:00)
Language:

OPTOS - Orbit

View from above orbital plane
View from above orbital plane
View from above satellite
View from above satellite

Ground track
Ground track

The orbit data is extracted from the following two-line orbital elements,

1 39429U 13066P   18171.41500763 +.00000238 +00000-0 +51076-4 0  9993
2 39429 097.6908 151.2292 0145879 310.2227 048.6270 14.60755083243860
Epoch (UTC): 20 June 2018 09:57:36
Eccentricity: 0.0145879
inclination: 97.6908°
perigee height: 587 km
apogee height: 794 km
right ascension of ascending node: 151.2292°
argument of perigee: 310.2227°
revolutions per day: 14.60755083
mean anomaly at epoch: 48.6270°
orbit number at epoch: 24386

The dashed part of the orbit path shows where the satellite is in the earth's shadow,  

DLR